User: anonymous   Login
Location: Corsier
(46.2637°N, 6.2238°E)
Time: 17:38:23
(UTC+00:00)
Language:

Cosmos 1356 Rocket - Orbit

View from above orbital plane
View from above orbital plane
View from above satellite
View from above satellite

Ground track
Ground track

The orbit data is extracted from the following two-line orbital elements,

1 13154U 82039B   20221.14067141  .00000136  00000-0  92176-5 0  9997
2 13154  81.1842  13.9394 0040609 151.6702 208.6738 14.98755976 75669
Epoch (UTC): 08 August 2020 03:22:34
Eccentricity: 0.0040609
inclination: 81.1842°
perigee height: 542 km
apogee height: 599 km
right ascension of ascending node: 13.9394°
argument of perigee: 151.6702°
revolutions per day: 14.98755976
mean anomaly at epoch: 208.6738°
orbit number at epoch: 7566

The dashed part of the orbit path shows where the satellite is in the earth's shadow,  

DLR